Regional Weather Roundup
Issued by NWS Goodland, KS

Home | Current Version | Previous Version | Graphics & Text | Print | Product List | Glossary On
Versions: 1 2 3 4 5 6 7 8 9 10 11 12 13 14 15 16 17 18 19 20 21 22 23 24 25 26 27 28 29 30 31 32 33 34 35 36 37 38 39 40 41 42 43 44 45 46 47 48 49 50
000
ASUS43 KGLD 260659
RWRGLD

GOODLAND FORECAST AREA HOURLY WEATHER ROUNDUP
NATIONAL WEATHER SERVICE GOODLAND KS
100 AM MDT TUE JUL 26 2016

...OFFICIAL OBSERVATIONS...

CITY           SKY/WX    TMP DP  RH WIND       PRES   REMARKS
GOODLAND KS    CLOUDY    69  64  84 SE12      30.13F
HILL CITY KS   PTCLDY    68  64  87 E5        30.11F
IMPERIAL NEB   CLEAR     69  63  81 S12       30.11F
MCCOOK NEB     MOCLDY    71  64  78 S3        30.11F
AKRON CO       CLEAR     65  60  84 SE12      30.16F
BURLINGTON CO  PTCLDY    70  64  81 S13       30.15F
LIMON CO       NOT AVBL
$$

...UNOFFICIAL OBSERVATIONS...

CITY           SKY/WX    TMP DP  RH WIND       PRES   REMARKS
COLBY KS       CLEAR     70  68  94 SE9       30.14F
LENORA KS        N/A     69  32  25 MISG        N/A
NORTON KS      CLEAR     70  63  78 SE9       30.11
YUMA CO          N/A     64  62  92 CALM        N/A
$$



USA.gov is the U.S. government's official web portal to all federal, state and local government web resources and services.